Tracking 25648 objects as of 16-May-2022
HD Live streaming from Space Station
objects crossing your sky now

FREGAT DEB

Track FREGAT DEB now!
10-day predictions


NORAD ID: 45850
Int'l Code: 2011-037CL
Perigee: 657.6 km
Apogee: 2,620.1 km
Inclination: 51.1 °
Period: 118.9 minutes
Semi major axis: 8009 km
RCS: Unknown
Launch date: July 18, 2011
Source: Commonwealth of Independent States (former USSR) (CIS)
Launch site: TYURATAM MISSILE AND SPACE COMPLEX (TTMTR)

Note: This is SATELLITE DEBRIS
aabbcc
Your satellite tracking list
Your tracking list is empty




NASA's NSSDC Master Catalog

Two Line Element Set (TLE):
1 45850U 11037CL  22135.52048718 -.00035294  00000-0 -33110-1 0  9996
2 45850  51.0790 218.6665 1225074 109.5713 264.1336 12.11064828 84502
Source of the keplerian elements: AFSPC